GW4719 Weather Reports


Display with metric or nautical units.
time (UTC)temp
F
wind
direction
speed
MPH
gust
MPH
rain 1hr
in
rain 24hr
in
rain mn
in
humidity
%
barometer
mb
20260510022249 56 256 0.0 1.0 0.00 0.00 0.00 63 1013.9
20260510021749 57 256 0.0 0.0 0.00 0.00 0.00 62 1014.0
20260510021247 57 256 0.0 2.0 0.00 0.00 0.00 61 1013.8
20260510020742 57 256 0.0 1.0 0.00 0.00 0.00 61 1013.7
20260510020242 57 256 0.0 1.0 0.00 0.00 0.00 61 1013.7
20260510015739 57 256 0.0 2.0 0.00 0.00 0.00 61 1013.5
20260510015235 58 256 1.0 1.0 0.00 0.00 0.00 60 1013.7
20260510014730 59 256 0.0 2.0 0.00 0.00 0.00 58 1013.4
20260510014228 60 256 2.0 2.0 0.00 0.00 0.00 55 1013.3
20260510013723 61 256 0.0 0.0 0.00 0.00 0.00 53 1013.2
20260510013219 61 256 0.0 0.0 0.00 0.00 0.00 53 1013.2
20260510012719 61 256 0.0 0.0 0.00 0.00 0.00 53 1013.1
20260510012214 61 256 0.0 0.0 0.00 0.00 0.00 52 1013.1
20260510011709 62 256 0.0 1.0 0.00 0.00 0.00 52 1013.0
20260510011205 62 256 0.0 0.0 0.00 0.00 0.00 52 1013.0
20260510010701 62 256 0.0 1.0 0.00 0.00 0.00 52 1013.1
20260510010158 62 256 0.0 0.0 0.00 0.00 0.00 52 1013.0
20260510005655 62 256 0.0 2.0 0.00 0.00 0.00 51 1012.7
20260510005151 63 256 0.0 1.0 0.00 0.00 0.00 50 1012.5
20260510004650 64 256 0.0 1.0 0.00 0.00 0.00 48 1012.7
20260510004147 64 256 0.0 2.0 0.00 0.00 0.00 47 1012.6
20260510003645 65 256 2.0 3.0 0.00 0.00 0.00 47 1012.5
20260510003140 65 256 2.0 3.0 0.00 0.00 0.00 46 1012.2
20260510002635 65 256 3.0 4.0 0.00 0.00 0.00 45 1012.0
20260510002132 65 248 3.0 4.0 0.00 0.00 0.00 45 1012.0
20260510001628 66 248 4.0 4.0 0.00 0.00 0.00 45 1011.8
20260510001128 66 245 2.0 3.0 0.00 0.00 0.00 44 1011.9
20260510000627 66 243 3.0 3.0 0.00 0.00 0.00 44 1011.6
20260510000125 67 242 2.0 3.0 0.00 0.00 0.00 43 1011.9
20260509235621 67 250 3.0 6.0 0.00 0.00 0.00 42 1011.6
20260509235118 68 250 4.0 4.0 0.00 0.00 0.00 42 1011.7
20260509234614 69 250 3.0 6.0 0.00 0.00 0.00 41 1011.7
20260509234112 70 251 4.0 4.0 0.00 0.00 0.00 40 1011.7
20260509233609 70 249 4.0 4.0 0.00 0.00 0.00 40 1011.7
20260509233106 71 263 4.0 4.0 0.00 0.00 0.00 40 1011.7
20260509232603 70 267 4.0 7.0 0.00 0.00 0.00 40 1011.7
20260509232100 71 269 4.0 8.0 0.00 0.00 0.00 39 1011.8
20260509231556 72 268 4.0 6.0 0.00 0.00 0.00 39 1011.7
20260509231054 73 277 3.0 3.0 0.00 0.00 0.00 39 1011.7
20260509230550 72 258 2.0 4.0 0.00 0.00 0.00 37 1011.7
20260509230048 73 289 4.0 7.0 0.00 0.00 0.00 37 1011.7
20260509225543 73 298 2.0 6.0 0.00 0.00 0.00 38 1011.7
20260509225039 72 281 2.0 3.0 0.00 0.00 0.00 38 1011.8
20260509224535 72 286 5.0 6.0 0.00 0.00 0.00 38 1011.6
20260509224032 71 252 4.0 4.0 0.00 0.00 0.00 38 1011.6
20260509223529 71 274 2.0 6.0 0.00 0.00 0.00 39 1011.6
20260509223027 70 271 4.0 4.0 0.00 0.00 0.00 39 1011.7
20260509222522 71 231 4.0 4.0 0.00 0.00 0.00 38 1011.6
20260509222018 70 265 2.0 3.0 0.00 0.00 0.00 39 1011.6
20260509221514 71 265 2.0 4.0 0.00 0.00 0.00 38 1011.6
20260509221010 71 284 3.0 4.0 0.00 0.00 0.00 37 1011.5
20260509220506 71 284 2.0 6.0 0.00 0.00 0.00 38 1011.6
20260509220003 71 273 2.0 8.0 0.00 0.00 0.00 36 1011.4
20260509215458 72 271 3.0 7.0 0.00 0.00 0.00 36 1011.4
20260509214956 71 265 3.0 3.0 0.00 0.00 0.00 37 1011.4
20260509214453 71 256 5.0 8.0 0.00 0.00 0.00 36 1011.4
20260509213949 71 245 3.0 6.0 0.00 0.00 0.00 35 1011.5
20260509213445 72 268 6.0 8.0 0.00 0.00 0.00 35 1011.4
20260509212943 72 237 3.0 3.0 0.00 0.00 0.00 35 1011.4
20260509212440 73 263 3.0 4.0 0.00 0.00 0.00 34 1011.2
20260509211936 72 264 2.0 4.0 0.00 0.00 0.00 35 1011.2
20260509211432 72 266 2.0 3.0 0.00 0.00 0.00 36 1010.9
20260509210928 71 269 2.0 3.0 0.00 0.00 0.00 36 1011.1
20260509210426 71 270 2.0 9.0 0.00 0.00 0.00 35 1010.7
20260509205921 71 243 2.0 3.0 0.00 0.00 0.00 35 1011.0
20260509205420 71 240 3.0 4.0 0.00 0.00 0.00 34 1010.6
20260509204917 71 240 4.0 8.0 0.00 0.00 0.00 34 1010.7
20260509204413 73 234 4.0 6.0 0.00 0.00 0.00 33 1010.6
20260509203910 72 255 3.0 8.0 0.00 0.00 0.00 34 1010.7
20260509203406 72 257 5.0 8.0 0.00 0.00 0.00 34 1010.7
20260509202904 74 240 5.0 8.0 0.00 0.00 0.00 33 1010.6
20260509202359 73 250 3.0 4.0 0.00 0.00 0.00 34 1010.5
20260509201854 72 243 3.0 4.0 0.00 0.00 0.00 34 1010.5
20260509201350 72 241 4.0 6.0 0.00 0.00 0.00 33 1010.4
20260509200847 74 241 4.0 7.0 0.00 0.00 0.00 33 1010.3
20260509200342 75 240 5.0 6.0 0.00 0.00 0.00 31 1010.4
20260509195839 77 237 4.0 10.0 0.00 0.00 0.00 30 1010.3
20260509195339 77 242 5.0 7.0 0.00 0.00 0.00 30 1010.5
20260509194839 77 307 2.0 6.0 0.00 0.00 0.00 32 1010.4
20260509194335 76 232 4.0 4.0 0.00 0.00 0.00 32 1010.5
20260509193833 73 276 2.0 2.0 0.00 0.00 0.00 36 1010.7
20260509193332 73 346 3.0 8.0 0.00 0.00 0.00 36 1010.5
20260509192828 72 101 0.0 2.0 0.00 0.00 0.00 42 1010.7
20260509192320 70 101 2.0 3.0 0.00 0.00 0.00 42 1010.7
20260509191814 70 101 0.0 0.0 0.00 0.00 0.00 40 1011.0
20260509191311 70 214 1.0 3.0 0.00 0.00 0.00 42 1011.0
20260509190806 70 213 1.0 2.0 0.00 0.00 0.00 42 1011.2
20260509190304 71 213 2.0 2.0 0.00 0.00 0.00 41 1011.0
20260509185802 71 214 2.0 3.0 0.00 0.00 0.00 42 1011.1
20260509185257 71 235 2.0 6.0 0.00 0.00 0.00 40 1011.3
20260509184755 72 242 4.0 7.0 0.00 0.00 0.00 40 1011.3
20260509184253 71 280 0.0 3.0 0.00 0.00 0.00 44 1011.3
20260509183749 71 285 6.0 7.0 0.00 0.00 0.00 42 1011.4
20260509183244 72 307 4.0 7.0 0.00 0.00 0.00 42 1011.5
20260509182739 72 310 6.0 8.0 0.00 0.00 0.00 41 1011.7
20260509182238 73 358 1.0 3.0 0.00 0.00 0.00 39 1011.5
20260509181734 71 359 1.0 1.0 0.00 0.00 0.00 42 1011.7
20260509181232 70 359 2.0 3.0 0.00 0.00 0.00 45 1011.7
20260509180729 68 359 2.0 2.0 0.00 0.00 0.00 45 1011.7
20260509180226 69 359 1.0 1.0 0.00 0.00 0.00 47 1012.0
20260509175722 68 359 1.0 3.0 0.00 0.00 0.00 47 1011.9
20260509175218 68 359 0.0 1.0 0.00 0.00 0.00 47 1012.2
20260509174714 67 359 1.0 1.0 0.00 0.00 0.00 50 1012.3
20260509174209 66 359 2.0 2.0 0.00 0.00 0.00 52 1012.3
20260509173705 65 359 0.0 0.0 0.00 0.00 0.00 55 1012.5
20260509173201 63 359 0.0 0.0 0.00 0.00 0.00 59 1012.9
20260509172657 62 358 0.0 1.0 0.00 0.00 0.00 59 1012.9
20260509172154 61 358 1.0 2.0 0.00 0.00 0.00 60 1012.9
20260509171649 61 358 0.0 1.0 0.00 0.00 0.00 61 1012.9
20260509171145 61 359 1.0 1.0 0.00 0.00 0.00 61 1012.9
20260509170643 60 358 1.0 1.0 0.00 0.00 0.00 63 1012.6
20260509170138 60 358 1.0 2.0 0.00 0.00 0.00 64 1012.4
20260509165637 60 358 2.0 3.0 0.00 0.00 0.00 65 1012.4
20260509165133 61 358 4.0 4.0 0.00 0.00 0.00 60 1012.5
20260509164629 63 312 7.0 9.0 0.00 0.00 0.00 54 1012.4
20260509164125 65 355 3.0 6.0 0.00 0.00 0.00 49 1012.4
20260509163623 65 243 1.0 2.0 0.00 0.00 0.00 49 1012.3
20260509163118 65 243 2.0 2.0 0.00 0.00 0.00 47 1012.3
20260509162615 66 224 0.0 1.0 0.00 0.00 0.00 45 1012.2
20260509162111 66 224 1.0 2.0 0.00 0.00 0.00 46 1012.3
20260509161603 66 224 1.0 2.0 0.00 0.00 0.00 44 1012.3
20260509161102 66 239 0.0 2.0 0.00 0.00 0.00 45 1012.2
20260509160559 67 295 2.0 4.0 0.00 0.00 0.00 44 1012.3
20260509160054 68 220 0.0 1.0 0.00 0.00 0.00 44 1012.4
20260509155550 68 235 1.0 3.0 0.00 0.00 0.00 43 1012.3
20260509155047 67 232 0.0 2.0 0.00 0.00 0.00 45 1012.3
20260509154543 67 267 1.0 2.0 0.00 0.00 0.00 46 1012.2
20260509154041 67 94 1.0 4.0 0.00 0.00 0.00 46 1012.4
20260509153538 66 322 0.0 1.0 0.00 0.00 0.00 48 1012.5
20260509153034 65 238 1.0 6.0 0.00 0.00 0.00 49 1012.6
20260509152530 66 85 2.0 3.0 0.00 0.00 0.00 47 1012.3
20260509152027 66 132 1.0 2.0 0.00 0.00 0.00 46 1012.3
20260509151523 66 100 1.0 2.0 0.00 0.00 0.00 48 1012.3
20260509151021 66 104 2.0 6.0 0.00 0.00 0.00 48 1012.3
20260509150518 67 151 2.0 2.0 0.00 0.00 0.00 45 1012.6
20260509150017 67 147 0.0 1.0 0.00 0.00 0.00 48 1012.6
20260509145512 66 147 3.0 3.0 0.00 0.00 0.00 46 1012.6
20260509145007 68 110 0.0 2.0 0.00 0.00 0.00 46 1012.5
20260509144505 67 109 2.0 4.0 0.00 0.00 0.00 46 1012.3
20260509144001 66 123 2.0 2.0 0.00 0.00 0.00 47 1012.5
20260509143458 66 123 1.0 1.0 0.00 0.00 0.00 46 1012.4
20260509142950 66 122 1.0 6.0 0.00 0.00 0.00 47 1012.5
20260509142446 66 74 3.0 6.0 0.00 0.00 0.00 48 1012.6
20260509141942 66 104 2.0 6.0 0.00 0.00 0.00 48 1012.7
20260509141439 67 332 1.0 3.0 0.00 0.00 0.00 49 1012.6
20260509140936 65 96 2.0 4.0 0.00 0.00 0.00 50 1013.0
20260509140432 65 119 2.0 8.0 0.00 0.00 0.00 52 1013.1
20260509135931 64 220 2.0 4.0 0.00 0.00 0.00 52 1013.1
20260509135427 63 201 1.0 2.0 0.00 0.00 0.00 53 1013.2
20260509134924 62 105 3.0 6.0 0.00 0.00 0.00 55 1013.1
20260509134422 61 129 1.0 2.0 0.00 0.00 0.00 56 1013.1
20260509133919 61 164 1.0 3.0 0.00 0.00 0.00 57 1013.5
20260509133416 60 157 1.0 2.0 0.00 0.00 0.00 59 1013.6
20260509132914 59 197 0.0 2.0 0.00 0.00 0.00 59 1013.7
20260509132412 59 221 0.0 0.0 0.00 0.00 0.00 59 1013.7
20260509131909 58 221 0.0 0.0 0.00 0.00 0.00 60 1013.6
20260509131406 57 221 1.0 2.0 0.00 0.00 0.00 60 1013.7
20260509130902 56 221 0.0 3.0 0.00 0.00 0.00 61 1013.7
20260509130357 56 230 0.0 1.0 0.00 0.00 0.00 62 1013.6
20260509125855 55 230 1.0 2.0 0.00 0.00 0.00 62 1013.8
20260509125351 55 230 1.0 2.0 0.00 0.00 0.00 62 1013.7
20260509124847 54 230 1.0 1.0 0.00 0.00 0.00 63 1013.4
20260509124344 54 230 1.0 1.0 0.00 0.00 0.00 64 1013.4
20260509123843 54 230 1.0 2.0 0.00 0.00 0.00 64 1013.6
20260509123340 54 230 1.0 1.0 0.00 0.00 0.00 64 1013.3
20260509122835 54 230 0.0 1.0 0.00 0.00 0.00 66 1013.3
20260509122332 53 230 0.0 1.0 0.00 0.00 0.00 67 1013.5
20260509121829 53 230 1.0 1.0 0.00 0.00 0.00 64 1013.5
20260509121326 52 230 0.0 0.0 0.00 0.00 0.00 64 1013.4
20260509120824 52 230 1.0 1.0 0.00 0.00 0.00 67 1013.5
20260509120322 52 230 0.0 0.0 0.00 0.00 0.00 67 1013.6
20260509115820 52 230 0.0 0.0 0.00 0.00 0.00 66 1013.6
20260509115316 52 230 0.0 1.0 0.00 0.00 0.00 63 1013.6
20260509114814 52 230 1.0 1.0 0.00 0.00 0.00 63 1013.6
20260509114313 52 230 1.0 2.0 0.00 0.00 0.00 63 1013.6
20260509113812 52 230 0.0 1.0 0.00 0.00 0.00 63 1013.6
20260509113308 51 230 1.0 3.0 0.00 0.00 0.00 63 1013.4
20260509112805 51 196 0.0 1.0 0.00 0.00 0.00 63 1013.7
20260509112306 51 197 0.0 1.0 0.00 0.00 0.00 63 1013.7
20260509111759 51 197 0.0 0.0 0.00 0.00 0.00 64 1013.4
20260509111256 51 197 0.0 0.0 0.00 0.00 0.00 64 1013.8
20260509110754 51 196 0.0 0.0 0.00 0.00 0.00 64 1013.4
20260509110250 51 196 0.0 0.0 0.00 0.00 0.00 64 1013.7
20260509105748 51 197 0.0 0.0 0.00 0.00 0.00 64 1013.7
20260509105245 51 196 0.0 1.0 0.00 0.00 0.00 63 1013.7
20260509104742 51 197 0.0 1.0 0.00 0.00 0.00 64 1013.3
20260509104239 51 196 0.0 1.0 0.00 0.00 0.00 63 1013.4
20260509103737 51 197 0.0 1.0 0.00 0.00 0.00 63 1013.6
20260509103234 50 197 0.0 1.0 0.00 0.00 0.00 63 1013.4
20260509102732 50 196 1.0 1.0 0.00 0.00 0.00 64 1013.6
20260509102228 51 197 0.0 1.0 0.00 0.00 0.00 63 1013.6
20260509101719 51 197 0.0 2.0 0.00 0.00 0.00 63 1013.5
20260509101216 51 196 1.0 1.0 0.00 0.00 0.00 62 1013.5
20260509100713 51 196 0.0 1.0 0.00 0.00 0.00 62 1013.4
20260509100210 51 197 1.0 2.0 0.00 0.00 0.00 62 1013.5
20260509095707 51 196 1.0 2.0 0.00 0.00 0.00 61 1013.7
20260509095205 51 223 1.0 3.0 0.00 0.00 0.00 61 1013.8
20260509094701 51 221 1.0 2.0 0.00 0.00 0.00 61 1013.6
20260509094158 51 216 2.0 3.0 0.00 0.00 0.00 61 1013.5
20260509093656 52 218 2.0 3.0 0.00 0.00 0.00 61 1013.6
20260509093153 52 205 3.0 4.0 0.00 0.00 0.00 60 1013.7
20260509092651 52 206 2.0 4.0 0.00 0.00 0.00 60 1013.5
20260509092149 52 207 3.0 3.0 0.00 0.00 0.00 60 1013.6
20260509091647 52 207 2.0 4.0 0.00 0.00 0.00 60 1013.8
20260509091142 52 207 1.0 3.0 0.00 0.00 0.00 60 1013.9
20260509090640 52 207 2.0 2.0 0.00 0.00 0.00 60 1013.7
20260509090137 52 207 1.0 2.0 0.00 0.00 0.00 61 1013.6
20260509085635 52 207 0.0 2.0 0.00 0.00 0.00 60 1013.6
20260509085130 52 205 2.0 2.0 0.00 0.00 0.00 60 1013.9
20260509084628 52 205 1.0 2.0 0.00 0.00 0.00 60 1013.7
20260509084125 52 205 0.0 1.0 0.00 0.00 0.00 60 1013.6
20260509083622 51 205 1.0 2.0 0.00 0.00 0.00 61 1013.6
20260509083118 51 205 2.0 2.0 0.00 0.00 0.00 61 1014.0
20260509082616 51 198 1.0 1.0 0.00 0.00 0.00 62 1013.9
20260509082113 51 198 0.0 1.0 0.00 0.00 0.00 62 1014.0
20260509081610 51 198 0.0 0.0 0.00 0.00 0.00 62 1014.1
20260509081107 51 222 1.0 2.0 0.00 0.00 0.00 62 1014.0
20260509080605 51 222 1.0 2.0 0.00 0.00 0.00 62 1013.8
20260509080103 51 222 0.0 0.0 0.00 0.00 0.00 62 1013.9
20260509075601 51 222 0.0 0.0 0.00 0.00 0.00 62 1014.1
20260509075059 51 222 0.0 1.0 0.00 0.00 0.00 62 1014.1
20260509074555 51 222 1.0 2.0 0.00 0.00 0.00 62 1013.9
20260509074052 51 222 0.0 2.0 0.00 0.00 0.00 62 1014.1
20260509073548 51 223 0.0 2.0 0.00 0.00 0.00 63 1014.0
20260509073044 50 224 0.0 1.0 0.00 0.00 0.00 63 1014.1
20260509072540 50 224 1.0 2.0 0.00 0.00 0.00 63 1014.3
20260509072038 50 224 0.0 1.0 0.00 0.00 0.00 63 1014.2
20260509071534 50 224 1.0 2.0 0.00 0.00 0.00 62 1014.3
20260509071032 50 223 1.0 3.0 0.00 0.00 0.00 62 1014.4
20260509070529 50 230 1.0 2.0 0.00 0.00 0.00 63 1014.2
20260509070025 50 230 1.0 2.0 0.00 0.00 0.00 63 1014.3
20260509065520 50 230 0.0 1.0 0.00 0.00 0.00 63 1014.4
20260509065017 50 230 0.0 2.0 0.00 0.00 0.00 62 1014.3
20260509064515 50 230 1.0 1.0 0.00 0.00 0.00 62 1014.4
20260509064013 50 237 1.0 3.0 0.00 0.00 0.00 62 1014.5
20260509063508 50 213 0.0 2.0 0.00 0.00 0.00 63 1014.5
20260509063005 50 214 0.0 0.0 0.00 0.00 0.00 63 1014.4
20260509062502 50 214 1.0 2.0 0.00 0.00 0.00 63 1014.7
20260509062000 50 223 1.0 2.0 0.00 0.00 0.00 63 1014.7
20260509061457 49 223 1.0 3.0 0.00 0.00 0.00 64 1014.6
20260509060954 49 244 2.0 2.0 0.00 0.00 0.00 65 1014.5
20260509060452 49 244 1.0 1.0 0.00 0.00 0.00 65 1014.7
20260509055947 49 244 1.0 1.0 0.00 0.00 0.00 65 1014.5
20260509055442 49 244 1.0 1.0 0.00 0.00 0.00 65 1014.5
20260509054939 49 244 0.0 2.0 0.00 0.00 0.00 64 1014.6
20260509054436 50 244 1.0 2.0 0.00 0.00 0.00 64 1015.0
20260509053934 50 244 1.0 1.0 0.00 0.00 0.00 63 1014.7
20260509053432 50 244 1.0 1.0 0.00 0.00 0.00 63 1014.7
20260509052929 51 244 1.0 1.0 0.00 0.00 0.00 62 1015.0
20260509052426 51 244 1.0 1.0 0.00 0.00 0.00 62 1014.8
20260509051924 51 244 1.0 1.0 0.00 0.00 0.00 62 1014.8
20260509051422 51 244 0.0 0.0 0.00 0.00 0.00 62 1014.8
20260509050918 51 244 0.0 0.0 0.00 0.00 0.00 61 1014.8
20260509050415 51 244 0.0 0.0 0.00 0.00 0.00 61 1014.8
20260509045912 51 244 0.0 0.0 0.00 0.00 0.00 60 1014.8
20260509045409 51 244 0.0 0.0 0.00 0.00 0.00 59 1015.1
20260509044906 51 244 0.0 0.0 0.00 0.00 0.00 58 1015.0
20260509044404 52 244 0.0 0.0 0.00 0.00 0.00 57 1015.3
20260509043900 53 244 0.0 1.0 0.00 0.00 0.00 56 1015.0
20260509043356 53 244 0.0 1.0 0.00 0.00 0.00 56 1015.0
20260509042852 53 244 0.0 1.0 0.00 0.00 0.00 56 1015.0
20260509042349 53 244 1.0 1.0 0.00 0.00 0.00 55 1014.8
20260509041845 53 244 0.0 0.0 0.00 0.00 0.00 55 1014.6
20260509041342 53 244 1.0 1.0 0.00 0.00 0.00 55 1014.8
20260509040841 53 244 0.0 0.0 0.00 0.00 0.00 55 1014.8
20260509040338 53 244 0.0 2.0 0.00 0.00 0.00 55 1014.8
20260509035835 53 244 1.0 1.0 0.00 0.00 0.00 55 1014.7
20260509035332 53 244 1.0 1.0 0.00 0.00 0.00 55 1014.7
20260509034828 53 244 1.0 1.0 0.00 0.00 0.00 54 1014.6
20260509034326 53 244 1.0 1.0 0.00 0.00 0.00 55 1014.5
20260509033822 53 244 1.0 1.0 0.00 0.00 0.00 55 1015.0
20260509033320 53 244 0.0 0.0 0.00 0.00 0.00 54 1015.0
20260509032816 53 244 0.0 0.0 0.00 0.00 0.00 53 1014.6
20260509032314 54 244 0.0 0.0 0.00 0.00 0.00 52 1014.7
20260509031812 54 244 0.0 0.0 0.00 0.00 0.00 52 1014.7
20260509031309 54 244 0.0 0.0 0.00 0.00 0.00 52 1015.0
20260509030806 53 244 0.0 1.0 0.00 0.00 0.00 52 1014.8
20260509030304 53 244 0.0 1.0 0.00 0.00 0.00 53 1015.0
20260509025800 53 244 0.0 0.0 0.00 0.00 0.00 54 1014.7
20260509025256 53 244 0.0 1.0 0.00 0.00 0.00 54 1014.7
20260509024751 53 244 0.0 2.0 0.00 0.00 0.00 54 1014.6
20260509024248 53 244 2.0 2.0 0.00 0.00 0.00 54 1014.8
20260509023745 53 245 1.0 1.0 0.00 0.00 0.00 54 1014.8
20260509023242 54 245 0.0 0.0 0.00 0.00 0.00 51 1014.7
20260509022738 55 245 0.0 0.0 0.00 0.00 0.00 48 1014.6